STARLINK-1679 (46557 NORAD) Tracking and Keplerian Element Data

This shows tracking and keplerian element data for the satellite.

Feedback or suggestion? Click here.




ElementValue
Catalog46557
NameSTARLINK-1679
Epoch Orbit433
Epoch Day302.83335648
Epoch Year2020
RAAN332.1358
Inclination53.0004
Eccentricity8.44E-05
Argument of Perigee57.2899
Mean Anonmoly357.7387
Mean Motion15.62696863
Decay Rate0.00023491
L11 46557U 20070AB 20302.83335648 .00023491 00000-0 26220-3 0 9997
L22 46557 53.0004 332.1358 0000844 57.2899 357.7387 15.62696863 4334

Live tracking and technical data element details for STARLINK-1679 (NORAD 46557). STARLINK-1679 can be tracked NOW for your location showing map with azimuth and elevation plus other details from your city location.

Track the satellite on the map from your city or location and see movement details for azimuth, elevation, latitude, longitude, range, height, and movement on the map or in text.







IsCatalogInMostPopularTable: catalog: 46557, numindb: 3
Update: records affected: 1



GetName: 46557 STARLINK-1679

Hit Count: updated at: Fri, 30 Oct 2020 01:35:14 GMT